Location: Asheville, NC
(35.6000°N, 82.5500°W)
Time: 22:49:35
(UTC-04:00)

KKS-1 - Pass Details

Date: 17 February 2018
Orbit: 637 x 651 km, 98.4° (Epoch: 20 May)

Event Time Altitude Azimuth Distance (km) Brightness Sun altitude
Rises 04:45:28 0° 148° (SSE) 2,926 ? -31.0°
Reaches altitude 10° 04:47:45 10° 141° (SE) 2,023 ? -30.5°
Maximum altitude 04:51:51 40° 72° (ENE) 954 ? -29.7°
Enters shadow 04:54:16 22° 16° (NNE) 1,421 ? -29.2°
